| time (UTC) | temp F | wind direction | speed MPH | gust MPH | rain 1hr in | rain 24hr in | rain mn in | humidity % | barometer mb |
| 20260502232657 | 43 | 320 | 7.0 | 15.0 | 0.00 | 0.06 | 0.02 | 72 | 1013.9 |
| 20260502232121 | 43 | 342 | 8.0 | 15.0 | 0.00 | 0.06 | 0.02 | 71 | 1013.8 |
| 20260502231636 | 43 | 311 | 8.0 | 16.0 | 0.00 | 0.06 | 0.02 | 71 | 1013.8 |
| 20260502231125 | 43 | 298 | 9.0 | 16.0 | 0.00 | 0.06 | 0.02 | 70 | 1013.8 |
| 20260502230617 | 44 | 314 | 5.0 | 12.0 | 0.00 | 0.07 | 0.02 | 72 | 1013.8 |
| 20260502230148 | 44 | 296 | 8.0 | 18.0 | 0.00 | 0.07 | 0.02 | 71 | 1013.7 |
| 20260502225623 | 44 | 305 | 9.0 | 18.0 | 0.00 | 0.07 | 0.02 | 71 | 1013.7 |
| 20260502225116 | 44 | 268 | 7.0 | 12.0 | 0.00 | 0.07 | 0.02 | 73 | 1013.7 |
| 20260502224630 | 44 | 318 | 3.0 | 13.0 | 0.00 | 0.07 | 0.02 | 73 | 1013.6 |
| 20260502224145 | 44 | 284 | 9.0 | 15.0 | 0.00 | 0.07 | 0.02 | 72 | 1013.5 |
| 20260502223638 | 45 | 343 | 8.0 | 15.0 | 0.00 | 0.07 | 0.02 | 72 | 1013.6 |
| 20260502223126 | 45 | 308 | 8.0 | 14.0 | 0.00 | 0.07 | 0.02 | 72 | 1013.4 |
| 20260502222623 | 45 | 301 | 9.0 | 13.0 | 0.00 | 0.07 | 0.02 | 70 | 1013.5 |
| 20260502222118 | 45 | 325 | 7.0 | 17.0 | 0.00 | 0.07 | 0.02 | 70 | 1013.4 |
| 20260502221633 | 45 | 274 | 6.0 | 17.0 | 0.00 | 0.07 | 0.02 | 69 | 1013.4 |
| 20260502221141 | 46 | 263 | 5.0 | 12.0 | 0.00 | 0.07 | 0.02 | 69 | 1013.3 |
| 20260502220636 | 46 | 278 | 7.0 | 14.0 | 0.00 | 0.08 | 0.02 | 68 | 1013.3 |
| 20260502220123 | 46 | 309 | 9.0 | 14.0 | 0.00 | 0.08 | 0.02 | 70 | 1013.4 |
| 20260502215620 | 46 | 278 | 8.0 | 14.0 | 0.00 | 0.08 | 0.02 | 72 | 1013.4 |
| 20260502215135 | 45 | 315 | 5.0 | 13.0 | 0.00 | 0.08 | 0.02 | 75 | 1013.4 |
| 20260502214621 | 45 | 272 | 7.0 | 13.0 | 0.00 | 0.08 | 0.02 | 74 | 1013.4 |
| 20260502214158 | 45 | 311 | 10.0 | 15.0 | 0.00 | 0.08 | 0.02 | 72 | 1013.5 |
| 20260502213623 | 46 | 318 | 8.0 | 17.0 | 0.00 | 0.08 | 0.02 | 68 | 1013.4 |
| 20260502213118 | 47 | 309 | 11.0 | 17.0 | 0.00 | 0.08 | 0.02 | 63 | 1013.2 |
| 20260502212635 | 47 | 272 | 10.0 | 15.0 | 0.00 | 0.08 | 0.02 | 61 | 1013.2 |
| 20260502212124 | 48 | 293 | 8.0 | 15.0 | 0.00 | 0.08 | 0.02 | 62 | 1013.0 |
| 20260502211655 | 48 | 251 | 4.0 | 11.0 | 0.00 | 0.08 | 0.02 | 61 | 1013.0 |
| 20260502211121 | 48 | 237 | 6.0 | 10.0 | 0.00 | 0.08 | 0.02 | 61 | 1013.0 |
| 20260502210634 | 48 | 270 | 7.0 | 14.0 | 0.00 | 0.10 | 0.02 | 63 | 1012.9 |
| 20260502210140 | 48 | 320 | 8.0 | 14.0 | 0.00 | 0.10 | 0.02 | 65 | 1012.8 |
| 20260502205636 | 47 | 253 | 3.0 | 17.0 | 0.00 | 0.10 | 0.02 | 66 | 1012.8 |
| 20260502205123 | 47 | 266 | 8.0 | 17.0 | 0.00 | 0.10 | 0.02 | 65 | 1012.9 |
| 20260502204617 | 47 | 299 | 10.0 | 16.0 | 0.00 | 0.10 | 0.02 | 65 | 1012.8 |
| 20260502204134 | 47 | 301 | 10.0 | 17.0 | 0.00 | 0.10 | 0.02 | 62 | 1012.9 |
| 20260502203620 | 48 | 289 | 11.0 | 17.0 | 0.00 | 0.10 | 0.02 | 62 | 1012.9 |
| 20260502203136 | 48 | 266 | 8.0 | 16.0 | 0.00 | 0.10 | 0.02 | 61 | 1012.8 |
| 20260502202643 | 48 | 272 | 3.0 | 14.0 | 0.00 | 0.10 | 0.02 | 62 | 1012.8 |
| 20260502202136 | 48 | 289 | 8.0 | 16.0 | 0.00 | 0.10 | 0.02 | 59 | 1012.7 |
| 20260502201624 | 48 | 311 | 7.0 | 16.0 | 0.00 | 0.10 | 0.02 | 59 | 1012.7 |
| 20260502201140 | 49 | 260 | 7.0 | 14.0 | 0.00 | 0.10 | 0.02 | 58 | 1012.7 |
| 20260502200645 | 49 | 324 | 6.0 | 11.0 | 0.00 | 0.13 | 0.02 | 57 | 1012.7 |
| 20260502200118 | 49 | 266 | 6.0 | 12.0 | 0.00 | 0.13 | 0.02 | 58 | 1012.7 |
| 20260502195635 | 49 | 264 | 3.0 | 13.0 | 0.00 | 0.13 | 0.02 | 62 | 1012.7 |
| 20260502195122 | 49 | 245 | 8.0 | 13.0 | 0.00 | 0.13 | 0.02 | 60 | 1012.9 |
| 20260502194619 | 48 | 246 | 7.0 | 14.0 | 0.00 | 0.13 | 0.02 | 58 | 1012.9 |
| 20260502194134 | 49 | 262 | 8.0 | 14.0 | 0.01 | 0.13 | 0.02 | 59 | 1013.0 |
| 20260502193622 | 49 | 241 | 4.0 | 11.0 | 0.01 | 0.13 | 0.02 | 60 | 1013.1 |
| 20260502193117 | 49 | 311 | 4.0 | 17.0 | 0.01 | 0.13 | 0.02 | 61 | 1013.2 |
| 20260502192650 | 49 | 256 | 8.0 | 17.0 | 0.01 | 0.13 | 0.02 | 59 | 1013.1 |
| 20260502192123 | 49 | 309 | 4.0 | 11.0 | 0.01 | 0.13 | 0.02 | 60 | 1013.1 |
| 20260502191638 | 49 | 21 | 4.0 | 11.0 | 0.01 | 0.13 | 0.02 | 60 | 1013.1 |
| 20260502191127 | 49 | 207 | 0.0 | 6.0 | 0.01 | 0.13 | 0.02 | 56 | 1013.2 |
| 20260502190641 | 49 | 203 | 2.0 | 7.0 | 0.01 | 0.16 | 0.02 | 56 | 1013.2 |
| 20260502190134 | 49 | 235 | 2.0 | 7.0 | 0.01 | 0.16 | 0.02 | 57 | 1013.3 |
| 20260502185644 | 49 | 170 | 2.0 | 8.0 | 0.01 | 0.16 | 0.02 | 58 | 1013.3 |
| 20260502185157 | 49 | 207 | 2.0 | 8.0 | 0.01 | 0.16 | 0.02 | 56 | 1013.3 |
| 20260502184644 | 50 | 171 | 0.0 | 7.0 | 0.00 | 0.15 | 0.01 | 56 | 1013.3 |
| 20260502184139 | 49 | 171 | 3.0 | 7.0 | 0.00 | 0.15 | 0.01 | 58 | 1013.4 |
| 20260502183644 | 49 | 258 | 1.0 | 9.0 | 0.00 | 0.15 | 0.01 | 59 | 1013.6 |
| 20260502182625 | 48 | 265 | 2.0 | 11.0 | 0.00 | 0.15 | 0.01 | 59 | 1013.9 |
| 20260502182140 | 48 | 276 | 5.0 | 9.0 | 0.00 | 0.15 | 0.01 | 61 | 1013.8 |
| 20260502181627 | 48 | 307 | 5.0 | 11.0 | 0.00 | 0.15 | 0.01 | 62 | 1013.8 |
| 20260502181144 | 47 | 227 | 7.0 | 11.0 | 0.00 | 0.15 | 0.01 | 60 | 1013.9 |
| 20260502180654 | 47 | 226 | 2.0 | 7.0 | 0.00 | 0.19 | 0.01 | 61 | 1013.8 |
| 20260502180127 | 47 | 187 | 2.0 | 9.0 | 0.00 | 0.19 | 0.01 | 61 | 1013.8 |
| 20260502170137 | 47 | 307 | 3.0 | 9.0 | 0.00 | 0.20 | 0.01 | 64 | 1014.0 |
| 20260502164156 | 46 | 286 | 0.0 | 8.0 | 0.00 | 0.20 | 0.01 | 64 | 1014.1 |
| 20260502163622 | 46 | 284 | 4.0 | 8.0 | 0.00 | 0.20 | 0.01 | 64 | 1014.1 |
| 20260502163117 | 46 | 293 | 1.0 | 11.0 | 0.00 | 0.20 | 0.01 | 63 | 1014.2 |
| 20260502162626 | 46 | 266 | 6.0 | 14.0 | 0.00 | 0.20 | 0.01 | 66 | 1014.2 |
| 20260502162119 | 46 | 320 | 9.0 | 14.0 | 0.00 | 0.20 | 0.01 | 63 | 1014.2 |
| 20260502161633 | 46 | 279 | 1.0 | 11.0 | 0.00 | 0.20 | 0.01 | 62 | 1014.3 |
| 20260502161130 | 47 | 318 | 2.0 | 7.0 | 0.00 | 0.20 | 0.01 | 63 | 1014.3 |
| 20260502160625 | 47 | 284 | 0.0 | 10.0 | 0.00 | 0.22 | 0.01 | 63 | 1014.4 |
| 20260502160141 | 46 | 266 | 3.0 | 10.0 | 0.00 | 0.22 | 0.01 | 63 | 1014.4 |
| 20260502152135 | 47 | 270 | 8.0 | 16.0 | 0.00 | 0.22 | 0.01 | 64 | 1014.4 |
| 20260502151621 | 47 | 197 | 11.0 | 16.0 | 0.00 | 0.22 | 0.01 | 65 | 1014.2 |
| 20260502151137 | 48 | 237 | 7.0 | 13.0 | 0.00 | 0.22 | 0.01 | 62 | 1014.3 |
| 20260502150623 | 47 | 253 | 2.0 | 16.0 | 0.01 | 0.24 | 0.01 | 65 | 1014.2 |
| 20260502150118 | 47 | 251 | 7.0 | 16.0 | 0.01 | 0.24 | 0.01 | 66 | 1014.3 |
| 20260502140121 | 46 | 279 | 1.0 | 7.0 | 0.00 | 0.27 | 0.00 | 69 | 1014.0 |
| 20260502130658 | 43 | 114 | 1.0 | 3.0 | 0.00 | 0.33 | 0.00 | 77 | 1014.5 |
| 20260502130123 | 43 | 118 | 0.0 | 2.0 | 0.00 | 0.33 | 0.00 | 79 | 1014.6 |
| 20260502123623 | 41 | 160 | 0.0 | 3.0 | 0.00 | 0.33 | 0.00 | 87 | 1014.7 |
| 20260502123118 | 40 | 160 | 0.0 | 0.0 | 0.00 | 0.33 | 0.00 | 88 | 1014.7 |
| 20260502122650 | 39 | 160 | 0.0 | 0.0 | 0.00 | 0.33 | 0.00 | 88 | 1014.6 |
| 20260502122122 | 39 | 160 | 0.0 | 0.0 | 0.00 | 0.33 | 0.00 | 88 | 1014.7 |
| 20260502121616 | 38 | 160 | 0.0 | 3.0 | 0.00 | 0.33 | 0.00 | 88 | 1014.7 |
| 20260502121131 | 38 | 162 | 0.0 | 3.0 | 0.00 | 0.33 | 0.00 | 88 | 1014.6 |
| 20260502120625 | 37 | 160 | 0.0 | 0.0 | 0.00 | 0.41 | 0.00 | 88 | 1014.7 |
| 20260502120120 | 37 | 161 | 0.0 | 0.0 | 0.00 | 0.41 | 0.00 | 88 | 1014.7 |
| 20260502115636 | 37 | 160 | 0.0 | 0.0 | 0.00 | 0.41 | 0.00 | 88 | 1014.8 |
| 20260502115122 | 36 | 160 | 0.0 | 0.0 | 0.00 | 0.41 | 0.00 | 88 | 1014.9 |
| 20260502114637 | 36 | 160 | 0.0 | 0.0 | 0.00 | 0.41 | 0.00 | 88 | 1014.9 |
| 20260502114126 | 36 | 160 | 0.0 | 0.0 | 0.00 | 0.41 | 0.00 | 88 | 1015.1 |
| 20260502113639 | 36 | 160 | 0.0 | 0.0 | 0.00 | 0.41 | 0.00 | 88 | 1015.0 |
| 20260502113146 | 35 | 161 | 0.0 | 5.0 | 0.00 | 0.41 | 0.00 | 88 | 1015.0 |
| 20260502112621 | 35 | 160 | 0.0 | 5.0 | 0.00 | 0.41 | 0.00 | 88 | 1014.9 |
| 20260502112136 | 35 | 160 | 0.0 | 0.0 | 0.00 | 0.41 | 0.00 | 88 | 1014.8 |
| 20260502111623 | 35 | 160 | 0.0 | 0.0 | 0.00 | 0.41 | 0.00 | 88 | 1014.8 |
| 20260502111139 | 34 | 160 | 0.0 | 0.0 | 0.00 | 0.41 | 0.00 | 88 | 1014.8 |
| 20260502110626 | 34 | 160 | 0.0 | 0.0 | 0.00 | 0.42 | 0.00 | 88 | 1014.7 |
| 20260502110120 | 34 | 160 | 0.0 | 0.0 | 0.00 | 0.42 | 0.00 | 88 | 1014.7 |
| 20260502105636 | 33 | 160 | 0.0 | 0.0 | 0.00 | 0.42 | 0.00 | 88 | 1014.7 |
| 20260502105124 | 33 | 160 | 0.0 | 0.0 | 0.00 | 0.42 | 0.00 | 88 | 1014.8 |
| 20260502104618 | 33 | 160 | 0.0 | 0.0 | 0.00 | 0.42 | 0.00 | 88 | 1014.7 |
| 20260502104155 | 33 | 160 | 0.0 | 0.0 | 0.00 | 0.42 | 0.00 | 88 | 1014.8 |
| 20260502103621 | 33 | 160 | 0.0 | 2.0 | 0.00 | 0.42 | 0.00 | 88 | 1014.8 |
| 20260502103153 | 33 | 160 | 1.0 | 3.0 | 0.00 | 0.42 | 0.00 | 88 | 1014.7 |
| 20260502102620 | 34 | 160 | 2.0 | 3.0 | 0.00 | 0.42 | 0.00 | 88 | 1014.7 |
| 20260502102133 | 34 | 160 | 0.0 | 0.0 | 0.00 | 0.42 | 0.00 | 88 | 1014.8 |
| 20260502101627 | 34 | 160 | 0.0 | 1.0 | 0.00 | 0.42 | 0.00 | 88 | 1014.8 |
| 20260502101123 | 34 | 160 | 0.0 | 2.0 | 0.00 | 0.42 | 0.00 | 88 | 1014.8 |
| 20260502100617 | 34 | 160 | 0.0 | 2.0 | 0.00 | 0.42 | 0.00 | 88 | 1014.8 |
| 20260502100132 | 34 | 160 | 0.0 | 0.0 | 0.00 | 0.42 | 0.00 | 88 | 1014.8 |
| 20260502091138 | 35 | 135 | 0.0 | 3.0 | 0.00 | 0.42 | 0.00 | 87 | 1014.7 |
| 20260502090622 | 35 | 135 | 1.0 | 3.0 | 0.00 | 0.42 | 0.42 | 87 | 1014.7 |
| 20260502090157 | 34 | 135 | 0.0 | 0.0 | 0.00 | 0.42 | 0.42 | 87 | 1014.7 |
| 20260502071126 | 39 | 261 | 1.0 | 7.0 | 0.00 | 0.41 | 0.41 | 81 | 1014.2 |
| 20260502070619 | 39 | 268 | 1.0 | 4.0 | 0.00 | 0.41 | 0.41 | 81 | 1014.1 |
| 20260502070133 | 39 | 249 | 1.0 | 4.0 | 0.00 | 0.41 | 0.41 | 81 | 1014.0 |
| 20260502065622 | 39 | 301 | 0.0 | 10.0 | 0.00 | 0.41 | 0.41 | 81 | 1014.0 |
| 20260502065116 | 39 | 300 | 4.0 | 10.0 | 0.00 | 0.41 | 0.41 | 81 | 1014.0 |
| 20260502064626 | 39 | 319 | 5.0 | 9.0 | 0.00 | 0.41 | 0.41 | 81 | 1014.0 |
| 20260502064122 | 39 | 318 | 1.0 | 5.0 | 0.00 | 0.41 | 0.41 | 81 | 1013.9 |
| 20260502063634 | 39 | 329 | 1.0 | 5.0 | 0.00 | 0.41 | 0.41 | 81 | 1013.8 |
| 20260502063120 | 40 | 298 | 1.0 | 4.0 | 0.00 | 0.41 | 0.41 | 80 | 1013.8 |
| 20260502062657 | 40 | 295 | 1.0 | 6.0 | 0.00 | 0.41 | 0.41 | 80 | 1013.8 |
| 20260502062122 | 40 | 296 | 2.0 | 8.0 | 0.00 | 0.41 | 0.41 | 80 | 1013.7 |
| 20260502061656 | 40 | 323 | 3.0 | 9.0 | 0.00 | 0.41 | 0.41 | 80 | 1013.9 |
| 20260502061142 | 40 | 346 | 4.0 | 9.0 | 0.00 | 0.41 | 0.41 | 80 | 1013.9 |
| 20260502060656 | 40 | 14 | 0.0 | 9.0 | 0.00 | 0.41 | 0.41 | 81 | 1014.0 |
| 20260502060122 | 41 | 307 | 7.0 | 9.0 | 0.00 | 0.41 | 0.41 | 80 | 1014.0 |
| 20260502055659 | 41 | 326 | 0.0 | 5.0 | 0.00 | 0.41 | 0.41 | 81 | 1014.1 |
| 20260502055145 | 41 | 45 | 1.0 | 9.0 | 0.00 | 0.41 | 0.41 | 81 | 1014.1 |
| 20260502054659 | 41 | 323 | 2.0 | 11.0 | 0.00 | 0.41 | 0.41 | 81 | 1014.1 |
| 20260502054142 | 42 | 360 | 6.0 | 12.0 | 0.00 | 0.41 | 0.41 | 81 | 1014.0 |
| 20260502053634 | 42 | 16 | 5.0 | 12.0 | 0.00 | 0.41 | 0.41 | 82 | 1014.0 |
| 20260502053127 | 42 | 343 | 7.0 | 11.0 | 0.00 | 0.41 | 0.41 | 84 | 1014.0 |
| 20260502052623 | 42 | 317 | 1.0 | 10.0 | 0.00 | 0.41 | 0.41 | 85 | 1013.9 |
| 20260502052156 | 43 | 295 | 6.0 | 11.0 | 0.00 | 0.41 | 0.41 | 85 | 1013.9 |
| 20260502051622 | 42 | 319 | 6.0 | 10.0 | 0.01 | 0.41 | 0.41 | 85 | 1013.9 |
| 20260502051159 | 42 | 301 | 4.0 | 8.0 | 0.01 | 0.41 | 0.41 | 86 | 1013.8 |
| 20260502050625 | 42 | 235 | 0.0 | 4.0 | 0.01 | 0.41 | 0.41 | 85 | 1013.7 |
| 20260502050139 | 42 | 234 | 1.0 | 3.0 | 0.01 | 0.41 | 0.41 | 85 | 1013.7 |
| 20260502045633 | 42 | 220 | 0.0 | 5.0 | 0.01 | 0.41 | 0.41 | 85 | 1013.6 |
| 20260502045139 | 42 | 222 | 2.0 | 5.0 | 0.01 | 0.41 | 0.41 | 85 | 1013.5 |
| 20260502044626 | 43 | 234 | 0.0 | 3.0 | 0.01 | 0.41 | 0.41 | 85 | 1013.6 |
| 20260502044140 | 43 | 234 | 1.0 | 3.0 | 0.01 | 0.41 | 0.41 | 85 | 1013.6 |
| 20260502043626 | 43 | 234 | 0.0 | 4.0 | 0.01 | 0.41 | 0.41 | 84 | 1013.6 |
| 20260502043140 | 43 | 237 | 2.0 | 9.0 | 0.01 | 0.41 | 0.41 | 84 | 1013.7 |
| 20260502042635 | 43 | 239 | 4.0 | 10.0 | 0.01 | 0.41 | 0.41 | 84 | 1013.6 |
| 20260502042143 | 43 | 263 | 3.0 | 7.0 | 0.01 | 0.41 | 0.41 | 84 | 1013.8 |
| 20260502041652 | 43 | 259 | 2.0 | 7.0 | 0.00 | 0.40 | 0.40 | 83 | 1013.7 |
| 20260502041126 | 44 | 265 | 2.0 | 7.0 | 0.00 | 0.40 | 0.40 | 83 | 1013.6 |
| 20260502040640 | 44 | 245 | 1.0 | 7.0 | 0.00 | 0.40 | 0.40 | 83 | 1013.4 |
| 20260502040147 | 44 | 212 | 3.0 | 10.0 | 0.00 | 0.40 | 0.40 | 82 | 1013.4 |
| 20260502035634 | 44 | 225 | 2.0 | 11.0 | 0.00 | 0.40 | 0.40 | 81 | 1013.2 |
| 20260502035123 | 45 | 225 | 5.0 | 11.0 | 0.00 | 0.40 | 0.40 | 80 | 1013.2 |
| 20260502034636 | 45 | 231 | 5.0 | 9.0 | 0.00 | 0.40 | 0.40 | 79 | 1013.4 |
| 20260502034123 | 45 | 254 | 2.0 | 11.0 | 0.00 | 0.40 | 0.40 | 79 | 1013.4 |
| 20260502033636 | 45 | 284 | 6.0 | 10.0 | 0.00 | 0.40 | 0.40 | 78 | 1013.4 |
| 20260502033123 | 45 | 243 | 6.0 | 11.0 | 0.00 | 0.40 | 0.40 | 78 | 1013.3 |
| 20260502032618 | 45 | 220 | 4.0 | 13.0 | 0.00 | 0.40 | 0.40 | 78 | 1013.1 |
| 20260502032132 | 45 | 235 | 7.0 | 13.0 | 0.00 | 0.40 | 0.40 | 79 | 1013.0 |
| 20260502031619 | 45 | 207 | 7.0 | 10.0 | 0.00 | 0.40 | 0.40 | 79 | 1013.1 |
| 20260502031135 | 45 | 223 | 4.0 | 10.0 | 0.00 | 0.40 | 0.40 | 80 | 1013.0 |
| 20260502030641 | 46 | 214 | 1.0 | 9.0 | 0.00 | 0.40 | 0.40 | 80 | 1013.1 |
| 20260502030147 | 46 | 254 | 4.0 | 9.0 | 0.00 | 0.40 | 0.40 | 80 | 1012.9 |
| 20260502025701 | 46 | 191 | 4.0 | 9.0 | 0.00 | 0.40 | 0.40 | 79 | 1013.0 |
| 20260502025126 | 46 | 203 | 2.0 | 15.0 | 0.00 | 0.40 | 0.40 | 79 | 1012.9 |
| 20260502024620 | 46 | 224 | 6.0 | 15.0 | 0.00 | 0.40 | 0.40 | 79 | 1012.9 |
| 20260502024132 | 46 | 241 | 3.0 | 14.0 | 0.00 | 0.40 | 0.40 | 79 | 1012.7 |
| 20260502023639 | 46 | 226 | 4.0 | 23.0 | 0.00 | 0.40 | 0.40 | 79 | 1012.9 |
| 20260502023130 | 47 | 223 | 13.0 | 23.0 | 0.01 | 0.40 | 0.40 | 79 | 1012.8 |
| 20260502022625 | 47 | 221 | 15.0 | 22.0 | 0.01 | 0.40 | 0.40 | 79 | 1012.8 |
| 20260502022138 | 47 | 230 | 8.0 | 22.0 | 0.01 | 0.40 | 0.40 | 80 | 1012.6 |
| 20260502021624 | 48 | 218 | 7.0 | 16.0 | 0.01 | 0.40 | 0.40 | 81 | 1012.5 |
| 20260502021120 | 48 | 273 | 10.0 | 16.0 | 0.01 | 0.40 | 0.40 | 81 | 1012.4 |
| 20260502020633 | 48 | 258 | 8.0 | 14.0 | 0.01 | 0.40 | 0.40 | 81 | 1012.4 |
| 20260502020121 | 47 | 188 | 8.0 | 11.0 | 0.01 | 0.40 | 0.40 | 82 | 1012.3 |
| 20260502015635 | 47 | 203 | 5.0 | 10.0 | 0.01 | 0.40 | 0.40 | 83 | 1012.2 |
| 20260502015121 | 47 | 199 | 0.0 | 6.0 | 0.01 | 0.40 | 0.40 | 83 | 1012.1 |
| 20260502014635 | 47 | 185 | 3.0 | 6.0 | 0.01 | 0.40 | 0.40 | 84 | 1012.0 |
| 20260502014123 | 47 | 187 | 2.0 | 5.0 | 0.01 | 0.40 | 0.40 | 84 | 1012.0 |
| 20260502013638 | 46 | 185 | 3.0 | 5.0 | 0.01 | 0.40 | 0.40 | 83 | 1011.9 |
| 20260502013124 | 46 | 222 | 2.0 | 3.0 | 0.00 | 0.39 | 0.39 | 83 | 1012.0 |
| 20260502012639 | 46 | 222 | 0.0 | 3.0 | 0.00 | 0.39 | 0.39 | 83 | 1012.0 |
| 20260502012125 | 46 | 224 | 1.0 | 3.0 | 0.00 | 0.39 | 0.39 | 83 | 1011.9 |
| 20260502011619 | 46 | 222 | 0.0 | 0.0 | 0.00 | 0.39 | 0.39 | 81 | 1011.9 |
| 20260502011135 | 47 | 222 | 0.0 | 0.0 | 0.00 | 0.39 | 0.39 | 81 | 1011.8 |
| 20260502010622 | 47 | 222 | 0.0 | 0.0 | 0.00 | 0.39 | 0.39 | 81 | 1011.5 |
| 20260502010135 | 47 | 222 | 0.0 | 0.0 | 0.01 | 0.39 | 0.39 | 80 | 1011.6 |
| 20260502005624 | 48 | 222 | 0.0 | 0.0 | 0.01 | 0.39 | 0.39 | 80 | 1011.4 |
| 20260502005138 | 48 | 222 | 0.0 | 0.0 | 0.01 | 0.39 | 0.39 | 80 | 1011.5 |
| 20260502004645 | 48 | 222 | 0.0 | 0.0 | 0.01 | 0.39 | 0.39 | 80 | 1011.4 |
| 20260502004119 | 48 | 222 | 0.0 | 2.0 | 0.01 | 0.39 | 0.39 | 80 | 1011.2 |
| 20260502003628 | 48 | 222 | 0.0 | 2.0 | 0.01 | 0.39 | 0.39 | 80 | 1011.2 |
| 20260502003121 | 49 | 222 | 0.0 | 4.0 | 0.01 | 0.39 | 0.39 | 79 | 1011.2 |
| 20260502002617 | 49 | 224 | 1.0 | 7.0 | 0.01 | 0.39 | 0.39 | 79 | 1011.2 |
| 20260502002132 | 49 | 234 | 3.0 | 11.0 | 0.01 | 0.39 | 0.39 | 78 | 1011.3 |
| 20260502001627 | 49 | 267 | 6.0 | 15.0 | 0.01 | 0.39 | 0.39 | 78 | 1011.4 |
| 20260502001123 | 49 | 253 | 7.0 | 15.0 | 0.01 | 0.39 | 0.39 | 77 | 1011.4 |
| 20260502000636 | 50 | 247 | 5.0 | 7.0 | 0.01 | 0.39 | 0.39 | 77 | 1011.3 |
| 20260502000143 | 50 | 278 | 3.0 | 8.0 | 0.00 | 0.38 | 0.38 | 76 | 1011.3 |
| 20260501235637 | 50 | 276 | 3.0 | 11.0 | 0.00 | 0.38 | 0.38 | 75 | 1011.3 |
| 20260501235124 | 50 | 300 | 5.0 | 11.0 | 0.00 | 0.38 | 0.38 | 74 | 1011.3 |
| 20260501234640 | 51 | 239 | 1.0 | 8.0 | 0.00 | 0.38 | 0.38 | 73 | 1011.1 |
| 20260501234136 | 51 | 217 | 2.0 | 12.0 | 0.00 | 0.38 | 0.38 | 71 | 1011.0 |
| 20260501233624 | 51 | 247 | 7.0 | 12.0 | 0.00 | 0.38 | 0.38 | 70 | 1010.9 |
| 20260501233137 | 51 | 278 | 7.0 | 17.0 | 0.01 | 0.38 | 0.38 | 68 | 1010.7 |